Bellefontaine, OH

12:10 PM EST on December 16, 2017 (GMT -0500)
Bellefontaine

Weather History for KEDJ - August, 2014

Change the Weather History Date:

Thursday, August 14, 2014

  Actual Average (KDLZ) Record (KDLZ)
Temperature  
Mean Temperature 60 °F -  
Max Temperature 69 °F 82 °F 93 °F (1938)
Min Temperature 51 °F 57 °F 43 °F (1964)
Degree Days  
Heating Degree Days 5    
Growing Degree Days 10 (Base 50)    
Moisture  
Dew Point 54 °F    
Average Humidity 78    
Maximum Humidity 100    
Minimum Humidity 53    
Precipitation  
Precipitation 0.00 in - - ()
Sea Level Pressure  
Sea Level Pressure 30.01 in    
Wind  
Wind Speed 3 mph (NW)    
Max Wind Speed 13 mph    
Max Gust Speed 20 mph    
Visibility 10 miles    
Events      
Averages and records for this station are not official NWS values.
T = Trace of Precipitation, MM = Missing Value Source: NWS Daily Summary

Daily Weather History Graph

Daily Weather History Graph

Search for Another Location

Airport or City:

Trip Planner

Search our weather history database for the weather conditions in past years. The results will help you decide how hot, cold, wet, or windy it might be!

Date:

Astronomy

Aug. 14, 2014 Rise Set
Actual Time 6:45 AM EDT 8:33 PM EDT
Civil Twilight 6:15 AM EDT 9:03 PM EDT
Nautical Twilight 5:40 AM EDT 9:38 PM EDT
Astronomical Twilight 5:02 AM EDT 10:16 PM EDT
Moon 10:55 PM EDT (8/14) 11:21 AM EDT (8/14)
Length of Visible Light 14h 47m
Length of Day
13h 48m
Waning Gibbous, 79% of the Moon is Illuminated
Aug 14
Waning Gibbous
Aug 17
Last Quarter
Aug 25
New
Sep 2
First Quarter
Sep 8
Full

Hourly Weather History & Observations

Time (EDT) Temp. Dew Point Humidity Pressure Visibility Wind Dir Wind Speed Gust Speed Precip Events Conditions
12:15 AM 60.8 °F 59.0 °F 94% 29.99 in 10.0 mi Calm Calm - 0.00 in   Mostly Cloudy
12:35 AM 60.8 °F 60.8 °F 100% 29.99 in 10.0 mi Calm Calm - 0.00 in   Overcast
12:55 AM 60.8 °F 60.8 °F 100% 29.99 in 10.0 mi Calm Calm - 0.00 in   Mostly Cloudy
1:15 AM 60.8 °F 59.0 °F 94% 30.00 in 10.0 mi Calm Calm - 0.00 in   Partly Cloudy
1:35 AM 59.0 °F 57.2 °F 94% 29.99 in 10.0 mi Calm Calm - 0.00 in   Clear
1:55 AM 60.8 °F 59.0 °F 94% 29.99 in 10.0 mi WSW 4.6 mph - 0.00 in   Mostly Cloudy
2:15 AM 60.8 °F 57.2 °F 88% 29.99 in 10.0 mi WSW 5.8 mph - 0.00 in   Mostly Cloudy
2:35 AM 60.8 °F 57.2 °F 88% 29.99 in 10.0 mi Calm Calm - 0.00 in   Mostly Cloudy
2:55 AM 59.0 °F 57.2 °F 94% 29.99 in 10.0 mi Calm Calm - 0.00 in   Mostly Cloudy
3:15 AM 60.8 °F 59.0 °F 94% 29.99 in 10.0 mi West 3.5 mph - 0.00 in   Mostly Cloudy
3:35 AM 59.0 °F 57.2 °F 94% 29.99 in 10.0 mi NW 3.5 mph - 0.00 in   Mostly Cloudy
3:55 AM 59.0 °F 57.2 °F 94% 29.99 in 10.0 mi Calm Calm - 0.00 in   Scattered Clouds
4:15 AM 57.2 °F 57.2 °F 100% 29.99 in 10.0 mi Calm Calm - 0.00 in   Clear
4:35 AM 57.2 °F 57.2 °F 100% 29.99 in 10.0 mi Calm Calm - 0.00 in   Clear
4:55 AM 55.4 °F 55.4 °F 100% 29.99 in 10.0 mi Calm Calm - 0.00 in   Clear
5:15 AM 55.4 °F 55.4 °F 100% 30.00 in 10.0 mi Calm Calm - 0.00 in   Clear
5:35 AM 55.4 °F 55.4 °F 100% 30.00 in 10.0 mi Calm Calm - 0.00 in   Clear
5:55 AM 55.4 °F 55.4 °F 100% 30.00 in 10.0 mi Calm Calm - 0.00 in   Clear
6:15 AM 53.6 °F 53.6 °F 100% 30.00 in 10.0 mi Calm Calm - 0.00 in   Clear
6:35 AM 53.6 °F 53.6 °F 100% 30.01 in 10.0 mi Calm Calm - 0.00 in   Clear
6:55 AM 51.8 °F 51.8 °F 100% 30.02 in 10.0 mi Calm Calm - 0.00 in   Clear
7:15 AM 53.6 °F 53.6 °F 100% 30.03 in 10.0 mi Calm Calm - 0.00 in   Clear
7:35 AM 53.6 °F 53.6 °F 100% 30.04 in 10.0 mi WNW 3.5 mph - 0.00 in   Clear
7:55 AM 55.4 °F 53.6 °F 94% 30.04 in 10.0 mi North 3.5 mph - 0.00 in   Clear
8:15 AM 57.2 °F 53.6 °F 88% 30.04 in 10.0 mi Calm Calm - 0.00 in   Clear
8:35 AM 57.2 °F 53.6 °F 88% 30.04 in 10.0 mi North 4.6 mph - 0.00 in   Clear
8:55 AM 57.2 °F 53.6 °F 88% 30.04 in 10.0 mi North 6.9 mph - 0.00 in   Clear
9:15 AM 59.0 °F 53.6 °F 82% 30.04 in 10.0 mi North 5.8 mph - 0.00 in   Clear
9:35 AM 60.8 °F 53.6 °F 77% 30.05 in 10.0 mi NW 4.6 mph - 0.00 in   Clear
9:55 AM 60.8 °F 51.8 °F 72% 30.05 in 10.0 mi NW 6.9 mph - 0.00 in   Clear
10:15 AM 62.6 °F 53.6 °F 72% 30.06 in 10.0 mi North 6.9 mph - 0.00 in   Clear
10:35 AM 62.6 °F 53.6 °F 72% 30.06 in 10.0 mi NNW 5.8 mph - 0.00 in   Clear
10:55 AM 64.4 °F 51.8 °F 64% 30.06 in 10.0 mi NW 6.9 mph - 0.00 in   Clear
11:15 AM 64.4 °F 51.8 °F 64% 30.06 in 10.0 mi NNW 9.2 mph - 0.00 in   Clear
11:35 AM 64.4 °F 51.8 °F 64% 30.05 in 10.0 mi North 8.1 mph - 0.00 in   Clear
11:55 AM 66.2 °F 53.6 °F 64% 30.05 in 10.0 mi North 10.4 mph - 0.00 in   Clear
12:15 PM 66.2 °F 51.8 °F 60% 30.05 in 10.0 mi NW 9.2 mph - 0.00 in   Clear
12:35 PM 66.2 °F 51.8 °F 60% 30.04 in 10.0 mi WNW 5.8 mph - 0.00 in   Clear
12:55 PM 66.2 °F 53.6 °F 64% 30.04 in 10.0 mi NW 9.2 mph - 0.00 in   Partly Cloudy
1:15 PM 66.2 °F 53.6 °F 64% 30.03 in 10.0 mi NNW 8.1 mph - 0.00 in   Clear
1:35 PM 68.0 °F 53.6 °F 60% 30.03 in 10.0 mi NNW 6.9 mph - 0.00 in   Clear
1:55 PM 68.0 °F 55.4 °F 64% 30.03 in 10.0 mi North 9.2 mph - 0.00 in   Clear
2:15 PM 69.8 °F 55.4 °F 60% 30.03 in 10.0 mi WNW 8.1 mph - 0.00 in   Partly Cloudy
2:35 PM 69.8 °F 55.4 °F 60% 30.02 in 10.0 mi NW 6.9 mph - 0.00 in   Partly Cloudy
2:55 PM 69.8 °F 55.4 °F 60% 30.02 in 10.0 mi WNW 9.2 mph 16.1 mph 0.00 in   Scattered Clouds
3:15 PM 69.8 °F 55.4 °F 60% 30.02 in 10.0 mi NNW 6.9 mph - 0.00 in   Scattered Clouds
3:35 PM 68.0 °F 53.6 °F 60% 30.01 in 10.0 mi WNW 9.2 mph - 0.00 in   Mostly Cloudy
3:55 PM 69.8 °F 55.4 °F 60% 30.01 in 10.0 mi NW 12.7 mph 18.4 mph 0.00 in   Mostly Cloudy
4:15 PM 69.8 °F 53.6 °F 56% 30.01 in 10.0 mi WNW 10.4 mph - 0.00 in   Partly Cloudy
4:35 PM 69.8 °F 53.6 °F 56% 30.01 in 10.0 mi WNW 9.2 mph - 0.00 in   Partly Cloudy
4:55 PM 69.8 °F 53.6 °F 56% 30.01 in 10.0 mi WNW 9.2 mph 19.6 mph 0.00 in   Clear
5:15 PM 69.8 °F 53.6 °F 56% 30.00 in 10.0 mi WNW 11.5 mph 19.6 mph 0.00 in   Clear
5:35 PM 69.8 °F 53.6 °F 56% 30.00 in 10.0 mi WNW 8.1 mph 17.3 mph 0.00 in   Partly Cloudy
5:55 PM 69.8 °F 53.6 °F 56% 30.00 in 10.0 mi NW 11.5 mph 18.4 mph 0.00 in   Clear
6:15 PM 69.8 °F 53.6 °F 56% 30.00 in 10.0 mi WNW 8.1 mph - 0.00 in   Clear
6:35 PM 69.8 °F 51.8 °F 53% 29.99 in 10.0 mi WNW 8.1 mph 16.1 mph 0.00 in   Clear
6:55 PM 69.8 °F 53.6 °F 56% 29.99 in 10.0 mi NW 6.9 mph - 0.00 in   Clear
7:15 PM 68.0 °F 53.6 °F 60% 29.99 in 10.0 mi NW 6.9 mph - 0.00 in   Clear
7:35 PM 66.2 °F 51.8 °F 60% 29.99 in 10.0 mi NW 5.8 mph - 0.00 in   Clear
7:55 PM 66.2 °F 51.8 °F 60% 29.99 in 10.0 mi NW 4.6 mph - 0.00 in   Clear
8:15 PM 64.4 °F 51.8 °F 64% 29.99 in 10.0 mi Calm Calm - 0.00 in   Clear
8:35 PM 62.6 °F 51.8 °F 68% 29.99 in 10.0 mi NW 3.5 mph - 0.00 in   Clear
8:55 PM 60.8 °F 51.8 °F 72% 30.00 in 10.0 mi Calm Calm - 0.00 in   Clear
9:15 PM 57.2 °F 51.8 °F 82% 30.00 in 10.0 mi Calm Calm - 0.00 in   Clear
9:35 PM 57.2 °F 51.8 °F 82% 30.01 in 10.0 mi Calm Calm - 0.00 in   Clear
9:55 PM 55.4 °F 51.8 °F 88% 30.01 in 10.0 mi Calm Calm - 0.00 in   Clear
10:15 PM 55.4 °F 51.8 °F 88% 30.01 in 10.0 mi Calm Calm - 0.00 in   Clear
10:35 PM 53.6 °F 51.8 °F 94% 30.01 in 10.0 mi Calm Calm - 0.00 in   Clear
10:55 PM 53.6 °F 51.8 °F 94% 30.01 in 10.0 mi Calm Calm - 0.00 in   Clear
11:15 PM 51.8 °F 51.8 °F 100% 30.02 in 10.0 mi Calm Calm - 0.00 in   Clear
11:35 PM 51.8 °F 50.0 °F 94% 30.02 in 10.0 mi Calm Calm - 0.00 in   Clear
11:55 PM 51.8 °F 50.0 °F 94% 30.02 in 10.0 mi Calm Calm - 0.00 in   Clear